TimeEDT,TemperatureF,Dew PointF,Humidity,Sea Level PressureIn,VisibilityMPH,Wind Direction,Wind SpeedMPH,Gust SpeedMPH,PrecipitationIn,Events,Conditions,WindDirDegrees,DateUTC
12:54 AM,57.0,50.0,77,30.24,10.0,North,6.9,-,N/A,,Clear,360,2013-09-17 04:54:00
1:54 AM,55.9,48.9,77,30.25,10.0,North,8.1,-,N/A,,Clear,360,2013-09-17 05:54:00
2:54 AM,55.0,48.0,77,30.26,10.0,North,9.2,-,N/A,,Clear,360,2013-09-17 06:54:00
3:54 AM,54.0,48.0,80,30.28,10.0,North,10.4,-,N/A,,Mostly Cloudy,360,2013-09-17 07:54:00
4:54 AM,53.1,46.9,80,30.30,10.0,North,5.8,-,N/A,,Clear,10,2013-09-17 08:54:00
5:54 AM,52.0,46.0,80,30.32,10.0,NNE,12.7,18.4,N/A,,Clear,30,2013-09-17 09:54:00
6:54 AM,51.1,42.1,71,30.34,10.0,NNE,11.5,-,N/A,,Clear,20,2013-09-17 10:54:00
7:54 AM,51.1,39.9,66,30.37,10.0,NNE,12.7,20.7,N/A,,Clear,20,2013-09-17 11:54:00
8:54 AM,54.0,39.0,57,30.39,10.0,NNE,11.5,20.7,N/A,,Clear,30,2013-09-17 12:54:00
9:54 AM,55.9,39.0,53,30.41,10.0,NE,12.7,-,N/A,,Clear,50,2013-09-17 13:54:00
10:54 AM,57.9,39.9,51,30.41,10.0,NE,10.4,-,N/A,,Clear,50,2013-09-17 14:54:00
11:54 AM,60.1,41.0,49,30.41,10.0,NNE,8.1,-,N/A,,Clear,30,2013-09-17 15:54:00
12:54 PM,61.0,42.1,50,30.40,10.0,Variable,4.6,-,N/A,,Clear,0,2013-09-17 16:54:00
1:54 PM,64.9,42.1,43,30.39,10.0,NE,10.4,21.9,N/A,,Clear,40,2013-09-17 17:54:00
2:54 PM,66.0,41.0,40,30.36,10.0,NNE,6.9,-,N/A,,Clear,30,2013-09-17 18:54:00
3:54 PM,64.9,39.9,40,30.35,10.0,NNE,6.9,-,N/A,,Clear,30,2013-09-17 19:54:00
4:54 PM,66.0,39.9,38,30.34,10.0,East,9.2,-,N/A,,Clear,80,2013-09-17 20:54:00
5:54 PM,64.0,42.1,45,30.35,10.0,ESE,8.1,-,N/A,,Clear,110,2013-09-17 21:54:00
6:54 PM,57.9,43.0,58,30.34,10.0,East,9.2,-,N/A,,Clear,100,2013-09-17 22:54:00
7:54 PM,52.0,44.1,74,30.35,10.0,ESE,4.6,-,N/A,,Clear,110,2013-09-17 23:54:00
8:54 PM,48.9,44.1,83,30.35,10.0,Calm,Calm,-,N/A,,Clear,0,2013-09-18 00:54:00
9:54 PM,46.0,44.1,93,30.36,10.0,Calm,Calm,-,N/A,,Clear,0,2013-09-18 01:54:00
10:54 PM,43.0,41.0,93,30.36,10.0,Calm,Calm,-,N/A,,Clear,0,2013-09-18 02:54:00
11:54 PM,42.1,41.0,96,30.36,-9999.0,Calm,Calm,-,N/A,,Clear,0,2013-09-18 03:54:00